Need To Know Information

  • Current Events
  • Runway Strength
  • Airfield Lighting
  • Rental Cars
  • Drone Operations

Why Delaware Coastal

  • Tax-Free Shopping
  • Convenient Fuel Stop
  • Beaches
  • Top Attractions

Current Weather Conditions

KGED 201154Z AUTO 19010G15KT 170V240 2SM +RA BR FEW013 BKN038 OVC060 14/14 A2936 RMK AO2 VIS 1 1/4V4 PRESFR SLP943 P0065 60120 70120 T01440144 10150 20117 56032 $
Wind Speed Deg 190
Wind Speed Kt 10

Current Fuel Cost

JET-A W/FSII $4.99/gal.
AVGAS $4.73/gal.
DE Location Map

Location.

Location.

Location.

  • Centrally located within driving distance of 4 major markets
  • Flight Time to: D.C. - 20 min. PHL - 22 min. NYC - 30 min.
  • Next to V-1, a busy North/South airway
  • The preferred airport for Delaware’s beaches

Facilities

  • Large corporate jet capability
  • Great pavement conditions (all under 10 years old)
  • $40 million in recent improvements
  • 5500 x 150 ft. main runway
  • 3109 x 75 ft. crosswind runway
  • Fuel & service
  • Rail access at the airport
  • Rental car access
Sussex Hangar

Hangar

Development

Opportunities

We have land available for hangar development!

Thank you for your submission.

Please correct your Name.

Please correct your Email.

Please correct your Subject.

Please correct your Message.